When you browse on this site, cookies collect data to enhance your experience and personalize the content and advertising you see.
Visit our Privacy Policy to learn more. By continuing to use the site, you agree to this use of cookies and data.
  • In Österreich
  • Länderverzeichnis
  • Für 7 Tage
  • Wassertemperatur
  • Wetterkarte
  • News
  • Widgets
  • user-avatar
    Anmelden

    Stündliche Wetter Gabrowo

    Heute, 25 Januar, Samstag

    Zeit Temperatur Niederschläge Wind Luftdruck Luftfeuchtigkeit
    00:00 0°C° 0 mm 1 m/S 706 mmHg 55%
    01:00 0°C° 0 mm 1 m/S 706 mmHg 54%
    02:00 0°C° 0 mm 1 m/S 706 mmHg 54%
    03:00 0°C° 0 mm 1 m/S 705 mmHg 53%
    04:00 0°C° 0 mm 1 m/S 705 mmHg 52%
    05:00 -1°C° 0 mm 0 m/S 705 mmHg 51%
    06:00 -1°C° 0 mm 0 m/S 705 mmHg 49%
    07:00 0°C° 0 mm 0 m/S 704 mmHg 48%
    08:00 +1°C° 0 mm 1 m/S 705 mmHg 46%
    09:00 +3°C° 0 mm 1 m/S 705 mmHg 42%
    10:00 +5°C° 0 mm 1 m/S 706 mmHg 38%
    11:00 +7°C° 0 mm 1 m/S 706 mmHg 35%
    12:00 +8°C° 0 mm 1 m/S 706 mmHg 34%
    13:00 +9°C° 0 mm 1 m/S 705 mmHg 34%
    14:00 +10°C° 0 mm 1 m/S 705 mmHg 34%
    15:00 +8°C° 0 mm 1 m/S 705 mmHg 39%
    16:00 +6°C° 0 mm 0 m/S 705 mmHg 44%
    17:00 +4°C° 0 mm 0 m/S 704 mmHg 49%
    18:00 +4°C° 0 mm 0 m/S 705 mmHg 49%
    19:00 +3°C° 0 mm 0 m/S 705 mmHg 49%
    20:00 +2°C° 0 mm 0 m/S 705 mmHg 50%
    21:00 +2°C° 0 mm 0 m/S 705 mmHg 50%
    22:00 +2°C° 0 mm 0 m/S 705 mmHg 50%
    23:00 +2°C° 0 mm 0 m/S 705 mmHg 51%

    Morgen, 26 Januar, Sonntag

    Zeit Temperatur Niederschläge Wind Luftdruck Luftfeuchtigkeit
    00:00 +2°C° 0 mm 0 m/S 705 mmHg 51%
    01:00 +2°C° 0 mm 0 m/S 705 mmHg 51%
    02:00 +2°C° 0 mm 0 m/S 705 mmHg 51%
    03:00 +1°C° 0 mm 0 m/S 705 mmHg 54%
    04:00 +1°C° 0 mm 0 m/S 704 mmHg 56%
    05:00 +1°C° 0 mm 0 m/S 704 mmHg 59%
    06:00 +1°C° 0 mm 0 m/S 705 mmHg 60%
    07:00 +1°C° 0 mm 0 m/S 705 mmHg 61%
    08:00 +1°C° 0 mm 0 m/S 705 mmHg 63%
    09:00 +3°C° 0 mm 0 m/S 705 mmHg 58%
    10:00 +5°C° 0 mm 0 m/S 706 mmHg 53%
    11:00 +7°C° 0 mm 0 m/S 706 mmHg 48%
    12:00 +7°C° 0 mm 0 m/S 706 mmHg 47%
    13:00 +9°C° 0 mm 1 m/S 705 mmHg 47%
    14:00 +10°C° 0 mm 1 m/S 705 mmHg 46%
    15:00 +8°C° 0 mm 1 m/S 705 mmHg 52%
    16:00 +7°C° 0 mm 1 m/S 705 mmHg 57%
    17:00 +6°C° 0 mm 1 m/S 704 mmHg 63%
    18:00 +6°C° 0 mm 1 m/S 704 mmHg 64%
    19:00 +5°C° 0 mm 1 m/S 704 mmHg 66%
    20:00 +4°C° 0 mm 1 m/S 704 mmHg 68%
    21:00 +4°C° 0 mm 1 m/S 704 mmHg 69%
    22:00 +4°C° 0 mm 1 m/S 704 mmHg 71%
    23:00 +3°C° 0 mm 1 m/S 704 mmHg 73%

    übermorgen, 27 Januar, Montag

    Zeit Temperatur Niederschläge Wind Luftdruck Luftfeuchtigkeit
    00:00 +2°C° 0 mm 0 m/S 704 mmHg 75%
    01:00 +2°C° 0 mm 0 m/S 703 mmHg 77%
    02:00 +2°C° 0 mm 0 m/S 703 mmHg 79%
    03:00 +1°C° 0 mm 0 m/S 703 mmHg 80%
    04:00 +1°C° 0 mm 0 m/S 702 mmHg 81%
    05:00 +1°C° 0 mm 0 m/S 702 mmHg 82%
    06:00 +1°C° 0 mm 0 m/S 702 mmHg 82%
    07:00 +1°C° 0 mm 0 m/S 702 mmHg 82%
    08:00 +1°C° 0 mm 0 m/S 702 mmHg 83%
    09:00 +2°C° 0 mm 0 m/S 702 mmHg 79%
    10:00 +4°C° 0 mm 0 m/S 702 mmHg 75%
    11:00 +6°C° 0 mm 1 m/S 702 mmHg 71%
    12:00 +6°C° 0.2 mm 1 m/S 702 mmHg 74%
    13:00 +5°C° 0.2 mm 0 m/S 701 mmHg 76%
    14:00 +5°C° 0.2 mm 0 m/S 701 mmHg 79%
    15:00 +5°C° 0.2 mm 1 m/S 701 mmHg 82%
    16:00 +5°C° 0.2 mm 1 m/S 700 mmHg 85%
    17:00 +5°C° 0.2 mm 1 m/S 700 mmHg 88%
    18:00 +5°C° 0.6 mm 1 m/S 700 mmHg 90%
    19:00 +4°C° 0.6 mm 1 m/S 700 mmHg 91%
    20:00 +3°C° 0.6 mm 2 m/S 700 mmHg 93%
    21:00 +3°C° 0.7 mm 2 m/S 700 mmHg 94%
    22:00 +4°C° 0.7 mm 1 m/S 699 mmHg 94%
    23:00 +4°C° 0.7 mm 1 m/S 699 mmHg 95%

    28 Januar, Dienstag

    Zeit Temperatur Niederschläge Wind Luftdruck Luftfeuchtigkeit
    00:00 +4°C° 0.4 mm 1 m/S 699 mmHg 95%
    01:00 +4°C° 0.4 mm 1 m/S 699 mmHg 95%
    02:00 +4°C° 0.4 mm 1 m/S 699 mmHg 95%
    03:00 +4°C° 0.2 mm 1 m/S 698 mmHg 94%
    04:00 +4°C° 0.2 mm 1 m/S 698 mmHg 94%
    05:00 +4°C° 0.2 mm 1 m/S 698 mmHg 94%
    06:00 +4°C° 0 mm 1 m/S 698 mmHg 93%
    07:00 +4°C° 0 mm 1 m/S 698 mmHg 93%
    08:00 +3°C° 0 mm 1 m/S 698 mmHg 93%
    09:00 +5°C° 0 mm 1 m/S 699 mmHg 86%
    10:00 +6°C° 0 mm 1 m/S 699 mmHg 79%
    11:00 +6°C° 0 mm 0 m/S 699 mmHg 73%
    12:00 +8°C° 0 mm 1 m/S 699 mmHg 69%
    13:00 +9°C° 0 mm 1 m/S 698 mmHg 65%
    14:00 +9°C° 0 mm 1 m/S 698 mmHg 62%
    15:00 +9°C° 0 mm 1 m/S 698 mmHg 65%
    16:00 +8°C° 0 mm 1 m/S 697 mmHg 69%
    17:00 +7°C° 0 mm 1 m/S 697 mmHg 73%
    18:00 +6°C° 0 mm 1 m/S 697 mmHg 76%
    19:00 +6°C° 0 mm 1 m/S 698 mmHg 79%
    20:00 +4°C° 0 mm 0 m/S 698 mmHg 82%
    21:00 +4°C° 0 mm 0 m/S 698 mmHg 82%
    22:00 +3°C° 0 mm 0 m/S 698 mmHg 83%
    23:00 +4°C° 0 mm 1 m/S 698 mmHg 83%

    29 Januar, Mittwoch

    Zeit Temperatur Niederschläge Wind Luftdruck Luftfeuchtigkeit
    00:00 +3°C° 0 mm 0 m/S 697 mmHg 83%
    01:00 +3°C° 0 mm 0 m/S 697 mmHg 83%
    02:00 +2°C° 0 mm 0 m/S 697 mmHg 82%
    03:00 +2°C° 0 mm 0 m/S 697 mmHg 82%
    04:00 +2°C° 0 mm 0 m/S 696 mmHg 82%
    05:00 +3°C° 0 mm 1 m/S 696 mmHg 81%
    06:00 +3°C° 0 mm 1 m/S 696 mmHg 80%
    07:00 +3°C° 0 mm 1 m/S 696 mmHg 79%
    08:00 +3°C° 0 mm 1 m/S 696 mmHg 77%
    09:00 +5°C° 0 mm 1 m/S 696 mmHg 72%
    10:00 +6°C° 0 mm 1 m/S 696 mmHg 67%
    11:00 +7°C° 0 mm 1 m/S 697 mmHg 62%
    12:00 +8°C° 0 mm 1 m/S 696 mmHg 61%
    13:00 +9°C° 0 mm 1 m/S 696 mmHg 59%
    14:00 +9°C° 0 mm 1 m/S 696 mmHg 57%
    15:00 +8°C° 0 mm 1 m/S 696 mmHg 63%
    16:00 +8°C° 0 mm 1 m/S 696 mmHg 69%
    17:00 +7°C° 0 mm 1 m/S 696 mmHg 75%
    18:00 +6°C° 0.1 mm 1 m/S 696 mmHg 78%
    19:00 +6°C° 0.1 mm 1 m/S 696 mmHg 81%
    20:00 +5°C° 0.1 mm 1 m/S 696 mmHg 85%
    21:00 +5°C° 0.4 mm 1 m/S 696 mmHg 86%
    22:00 +5°C° 0.4 mm 1 m/S 696 mmHg 87%
    23:00 +5°C° 0.4 mm 1 m/S 696 mmHg 88%

    30 Januar, Donnerstag

    Zeit Temperatur Niederschläge Wind Luftdruck Luftfeuchtigkeit
    00:00 +5°C° 1.2 mm 1 m/S 696 mmHg 90%
    01:00 +5°C° 1.2 mm 1 m/S 696 mmHg 92%
    02:00 +4°C° 1.2 mm 1 m/S 696 mmHg 94%
    03:00 +4°C° 0.4 mm 1 m/S 696 mmHg 92%
    04:00 +4°C° 0.4 mm 1 m/S 696 mmHg 91%
    05:00 +3°C° 0.4 mm 2 m/S 696 mmHg 90%
    06:00 +2°C° 0.1 mm 2 m/S 697 mmHg 84%
    07:00 +2°C° 0.1 mm 2 m/S 697 mmHg 79%
    08:00 0°C° 0.1 mm 3 m/S 698 mmHg 73%
    09:00 +1°C° 0 mm 3 m/S 698 mmHg 66%
    10:00 +2°C° 0 mm 3 m/S 699 mmHg 59%
    11:00 +3°C° 0 mm 3 m/S 699 mmHg 53%
    12:00 +3°C° 0 mm 4 m/S 699 mmHg 48%
    13:00 +4°C° 0 mm 4 m/S 699 mmHg 44%
    14:00 +4°C° 0 mm 4 m/S 699 mmHg 39%
    15:00 +4°C° 0 mm 4 m/S 700 mmHg 44%
    16:00 +3°C° 0 mm 3 m/S 700 mmHg 49%
    17:00 +2°C° 0 mm 3 m/S 700 mmHg 53%
    18:00 +1°C° 0 mm 3 m/S 700 mmHg 58%
    19:00 0°C° 0 mm 3 m/S 701 mmHg 64%
    20:00 -1°C° 0 mm 3 m/S 701 mmHg 69%
    21:00 -1°C° 0 mm 3 m/S 701 mmHg 72%
    22:00 -1°C° 0 mm 2 m/S 702 mmHg 74%
    23:00 -2°C° 0 mm 2 m/S 702 mmHg 77%
    Mehr zeigen